Location: Sabana Grande
(18.0777°N, 66.9605°W)
Time: 03:35:33
(UTC-04:00)

ACS3 Solar Sail - Pass Details

Date: 27 September 2024
Orbit: 960 x 1033 km, 97.5° (Epoch: 12 October)

Event Time Altitude Azimuth Distance (km) Brightness Sun altitude
Exits shadow 20:36:56 19° 5° (N) 2,223 3.7 -33.4°
Drops below altitude 10° 20:38:38 10° 0° (N) 2,830 4.3 -33.8°
Sets 20:41:11 0° 356° (N) 3,782 5.0 -34.4°
